Simultaneous Nadir Overpasses (SNOs) Predictions

Prediction of SNOs between LANDSAT-8 and METOP-B Satellite Orbit:

Table of predicted SNOs for the next 14.0 days since TLE Epoch: 6/8/2017
Index Date (LANDSAT-8) Time (LANDSAT-8) Lat,Lon (LANDSAT-8) SZA (LANDSAT-8 ) Date (METOP-B) Time (METOP-B) Lat,Lon (METOP-B) SZA (METOP-B ) Distance(km) Time Diff (sec)
1 06/10/2017 17:18:10 81.19, -38.56 60.41 06/10/2017 17:17:41 81.18, -38.41 60.41 2.68 29
2 06/10/2017 18:07:37 -81.18, 129.00 119.61 06/10/2017 18:08:22 -81.18, 128.84 119.61 2.62 45
3 06/13/2017 12:52:26 81.17, 27.64 60.18 06/13/2017 12:52:02 81.17, 27.59 60.17 0.69 24
4 06/13/2017 13:41:52 -81.19,-164.41 119.78 06/13/2017 13:42:41 -81.19,-164.39 119.75 0.46 49
5 06/16/2017 08:26:42 81.18, 94.18 60.06 06/16/2017 08:26:22 81.18, 94.34 60.07 2.81 20
6 06/16/2017 09:16:08 -81.20, -97.85 119.89 06/16/2017 09:17:02 -81.19, -98.02 119.89 3.07 54
7 06/19/2017 04:00:58 81.18, 160.69 59.99 06/19/2017 04:00:43 81.18, 160.68 59.98 0.23 15
8 06/19/2017 04:50:24 -81.20, -31.31 119.96 06/19/2017 04:51:22 -81.20, -31.29 119.93 0.42 58
9 06/21/2017 23:35:13 81.19,-132.82 59.97 06/21/2017 23:35:03 81.18,-132.99 59.94 2.98 10




NCC Satellite Simultaneous Nadir Overpasses (SNOs) Prediction Service
